TimeCDT,TemperatureF,Dew PointF,Humidity,Sea Level PressureIn,VisibilityMPH,Wind Direction,Wind SpeedMPH,Gust SpeedMPH,PrecipitationIn,Events,Conditions,WindDirDegrees,DateUTC
12:15 AM,24.8,24.8,100,30.36,10.0,Calm,Calm,-,N/A,,Partly Cloudy,0,2013-03-27 05:15:00
12:35 AM,24.8,24.8,100,30.36,10.0,Calm,Calm,-,N/A,,Partly Cloudy,0,2013-03-27 05:35:00
12:55 AM,24.8,23.0,93,30.36,10.0,Calm,Calm,-,N/A,,Scattered Clouds,0,2013-03-27 05:55:00
1:15 AM,24.8,23.0,93,30.37,10.0,Calm,Calm,-,N/A,,Partly Cloudy,0,2013-03-27 06:15:00
1:35 AM,24.8,23.0,93,30.37,10.0,Calm,Calm,-,N/A,,Partly Cloudy,0,2013-03-27 06:35:00
1:55 AM,23.0,23.0,100,30.36,10.0,Calm,Calm,-,N/A,,Scattered Clouds,0,2013-03-27 06:55:00
2:15 AM,23.0,23.0,100,30.36,10.0,Calm,Calm,-,N/A,,Mostly Cloudy,0,2013-03-27 07:15:00
2:35 AM,23.0,23.0,100,30.35,10.0,Calm,Calm,-,N/A,,Scattered Clouds,0,2013-03-27 07:35:00
2:55 AM,23.0,23.0,100,30.35,10.0,Calm,Calm,-,N/A,,Scattered Clouds,0,2013-03-27 07:55:00
3:15 AM,23.0,23.0,100,30.36,10.0,Calm,Calm,-,N/A,,Mostly Cloudy,0,2013-03-27 08:15:00
3:35 AM,23.0,23.0,100,30.34,10.0,Calm,Calm,-,N/A,,Overcast,0,2013-03-27 08:35:00
3:55 AM,23.0,21.2,93,30.34,10.0,Calm,Calm,-,N/A,,Mostly Cloudy,0,2013-03-27 08:55:00
4:15 AM,21.2,21.2,100,30.35,10.0,Calm,Calm,-,N/A,,Scattered Clouds,0,2013-03-27 09:15:00
4:35 AM,21.2,21.2,100,30.35,10.0,Calm,Calm,-,N/A,,Mostly Cloudy,0,2013-03-27 09:35:00
4:55 AM,19.4,19.4,100,30.36,10.0,Calm,Calm,-,N/A,,Mostly Cloudy,0,2013-03-27 09:55:00
5:15 AM,23.0,23.0,100,30.36,10.0,Calm,Calm,-,N/A,,Mostly Cloudy,0,2013-03-27 10:15:00
5:35 AM,21.2,21.2,100,30.36,10.0,Calm,Calm,-,N/A,,Overcast,0,2013-03-27 10:35:00
5:55 AM,19.4,19.4,100,30.36,10.0,Calm,Calm,-,N/A,,Overcast,0,2013-03-27 10:55:00
6:15 AM,19.4,19.4,100,30.37,10.0,Calm,Calm,-,N/A,,Mostly Cloudy,0,2013-03-27 11:15:00
6:35 AM,19.4,19.4,100,30.37,10.0,Calm,Calm,-,N/A,,Mostly Cloudy,0,2013-03-27 11:35:00
6:55 AM,19.4,19.4,100,30.37,10.0,Calm,Calm,-,N/A,,Mostly Cloudy,0,2013-03-27 11:55:00
7:15 AM,19.4,19.4,100,30.37,5.0,Calm,Calm,-,N/A,,Scattered Clouds,0,2013-03-27 12:15:00
7:35 AM,19.4,19.4,100,30.37,0.2,Calm,Calm,-,N/A,Fog,Light Freezing Fog,0,2013-03-27 12:35:00
7:55 AM,19.4,19.4,100,30.39,0.2,Calm,Calm,-,N/A,Fog,Light Freezing Fog,0,2013-03-27 12:55:00
8:15 AM,21.2,19.4,93,30.39,0.2,Calm,Calm,-,N/A,Fog,Light Freezing Fog,0,2013-03-27 13:15:00
8:35 AM,23.0,23.0,100,30.39,0.2,Calm,Calm,-,N/A,Fog,Light Freezing Fog,0,2013-03-27 13:35:00
8:55 AM,23.0,23.0,100,30.39,0.5,Calm,Calm,-,N/A,Fog,Light Freezing Fog,0,2013-03-27 13:55:00
9:15 AM,24.8,24.8,100,30.40,2.5,Calm,Calm,-,N/A,,Partly Cloudy,0,2013-03-27 14:15:00
9:35 AM,24.8,24.8,100,30.40,5.0,Calm,Calm,-,N/A,,Clear,0,2013-03-27 14:35:00
9:55 AM,26.6,26.6,100,30.40,9.0,Calm,Calm,-,N/A,,Clear,0,2013-03-27 14:55:00
10:15 AM,28.4,28.4,100,30.40,10.0,Calm,Calm,-,N/A,,Clear,0,2013-03-27 15:15:00
10:35 AM,32.0,26.6,80,30.39,10.0,Calm,Calm,-,N/A,,Clear,0,2013-03-27 15:35:00
10:55 AM,32.0,26.6,80,30.39,10.0,Calm,Calm,-,N/A,,Clear,0,2013-03-27 15:55:00
11:15 AM,35.6,24.8,65,30.39,10.0,SE,4.6,-,N/A,,Clear,140,2013-03-27 16:15:00
11:35 AM,37.4,24.8,60,30.39,10.0,SSE,3.5,-,N/A,,Clear,150,2013-03-27 16:35:00
11:55 AM,37.4,24.8,60,30.40,10.0,Calm,Calm,-,N/A,,Clear,0,2013-03-27 16:55:00
12:15 PM,39.2,23.0,52,30.39,10.0,Calm,Calm,-,N/A,,Clear,0,2013-03-27 17:15:00
12:35 PM,39.2,23.0,52,30.39,10.0,Calm,Calm,-,N/A,,Clear,0,2013-03-27 17:35:00
12:55 PM,41.0,23.0,49,30.39,10.0,Calm,Calm,-,N/A,,Clear,0,2013-03-27 17:55:00
1:15 PM,41.0,24.8,53,30.38,10.0,Calm,Calm,-,N/A,,Clear,0,2013-03-27 18:15:00
1:35 PM,41.0,24.8,53,30.37,10.0,Calm,Calm,-,N/A,,Clear,0,2013-03-27 18:35:00
1:55 PM,41.0,24.8,53,30.37,10.0,Calm,Calm,-,N/A,,Clear,0,2013-03-27 18:55:00
2:15 PM,41.0,24.8,53,30.36,10.0,Calm,Calm,-,N/A,,Clear,0,2013-03-27 19:15:00
2:35 PM,42.8,24.8,49,30.35,10.0,Calm,Calm,-,N/A,,Clear,0,2013-03-27 19:35:00
2:55 PM,42.8,24.8,49,30.34,10.0,Calm,Calm,-,N/A,,Clear,0,2013-03-27 19:55:00
3:15 PM,42.8,24.8,49,30.33,10.0,Calm,Calm,-,N/A,,Clear,0,2013-03-27 20:15:00
3:35 PM,44.6,24.8,46,30.32,10.0,SSE,3.5,-,N/A,,Clear,150,2013-03-27 20:35:00
3:55 PM,44.6,24.8,46,30.32,10.0,ESE,4.6,-,N/A,,Clear,120,2013-03-27 20:55:00
4:15 PM,44.6,24.8,46,30.31,10.0,Calm,Calm,-,N/A,,Clear,0,2013-03-27 21:15:00
4:35 PM,44.6,24.8,46,30.31,10.0,Calm,Calm,-,N/A,,Clear,0,2013-03-27 21:35:00
4:55 PM,44.6,26.6,49,30.30,10.0,SSE,3.5,-,N/A,,Clear,160,2013-03-27 21:55:00
5:15 PM,44.6,24.8,46,30.30,10.0,Calm,Calm,-,N/A,,Clear,0,2013-03-27 22:15:00
5:35 PM,44.6,24.8,46,30.30,10.0,Calm,Calm,-,N/A,,Partly Cloudy,0,2013-03-27 22:35:00
5:55 PM,44.6,24.8,46,30.29,10.0,ESE,3.5,-,N/A,,Clear,110,2013-03-27 22:55:00
6:15 PM,44.6,24.8,46,30.29,10.0,Calm,Calm,-,N/A,,Clear,0,2013-03-27 23:15:00
6:35 PM,44.6,23.0,43,30.28,10.0,Calm,Calm,-,N/A,,Clear,0,2013-03-27 23:35:00
6:55 PM,44.6,24.8,46,30.28,10.0,Calm,Calm,-,N/A,,Partly Cloudy,0,2013-03-27 23:55:00
7:15 PM,44.6,24.8,46,30.28,10.0,Calm,Calm,-,N/A,,Scattered Clouds,0,2013-03-28 00:15:00
7:35 PM,42.8,24.8,49,30.28,10.0,Calm,Calm,-,N/A,,Overcast,0,2013-03-28 00:35:00
7:55 PM,42.8,24.8,49,30.29,10.0,Calm,Calm,-,N/A,,Overcast,0,2013-03-28 00:55:00
8:15 PM,42.8,26.6,53,30.29,10.0,East,4.6,-,N/A,,Overcast,80,2013-03-28 01:15:00
8:35 PM,41.0,26.6,57,30.29,10.0,Calm,Calm,-,N/A,,Overcast,0,2013-03-28 01:35:00
8:55 PM,41.0,26.6,57,30.29,10.0,Calm,Calm,-,N/A,,Overcast,0,2013-03-28 01:55:00
9:15 PM,41.0,28.4,61,30.30,10.0,Calm,Calm,-,N/A,,Overcast,0,2013-03-28 02:15:00
9:35 PM,41.0,28.4,61,30.31,10.0,Calm,Calm,-,N/A,,Overcast,0,2013-03-28 02:35:00
9:55 PM,39.2,28.4,65,30.33,10.0,NW,3.5,-,N/A,,Overcast,310,2013-03-28 02:55:00
10:15 PM,39.2,28.4,65,30.33,10.0,Calm,Calm,-,N/A,,Overcast,0,2013-03-28 03:15:00
10:35 PM,39.2,28.4,65,30.33,10.0,Calm,Calm,-,N/A,,Overcast,0,2013-03-28 03:35:00
10:55 PM,39.2,28.4,65,30.32,10.0,Calm,Calm,-,N/A,,Overcast,0,2013-03-28 03:55:00
11:15 PM,39.2,28.4,65,30.32,10.0,ESE,5.8,-,N/A,,Overcast,120,2013-03-28 04:15:00
11:35 PM,39.2,26.6,61,30.32,10.0,Calm,Calm,-,N/A,,Overcast,0,2013-03-28 04:35:00
11:55 PM,39.2,26.6,61,30.31,10.0,SE,3.5,-,N/A,,Overcast,140,2013-03-28 04:55:00